Springfield, OH

2:31 PM EDT on May 24, 2018 (GMT -0400)
Springfield-Beckley Municipal

Weather History for KSGH - August, 2013

Change the Weather History Date:

Tuesday, August 13, 2013

  Actual Average (KFFO) Record (KFFO)
Temperature  
Mean Temperature 66 °F -  
Max Temperature 75 °F 81 °F 96 °F (2005)
Min Temperature 55 °F 60 °F 53 °F (2004)
Cooling Degree Days 1    
Growing Degree Days 16 (Base 50)    
Moisture  
Dew Point 62 °F    
Average Humidity 82    
Maximum Humidity 100    
Minimum Humidity 54    
Precipitation  
Precipitation 0.00 in - - ()
Sea Level Pressure  
Sea Level Pressure 29.94 in    
Wind  
Wind Speed 7 mph (NW)    
Max Wind Speed 15 mph    
Max Gust Speed -    
Visibility 6 miles    
Events      
Averages and records for this station are not official NWS values.
T = Trace of Precipitation, MM = Missing Value Source: NWS Daily Summary

Daily Weather History Graph

Daily Weather History Graph

Search for Another Location

Airport or City:

Astronomy

Aug. 13, 2013 Rise Set
Actual Time 6:45 AM EDT 8:34 PM EDT
Civil Twilight 6:16 AM EDT 9:03 PM EDT
Nautical Twilight 5:41 AM EDT 9:38 PM EDT
Astronomical Twilight 5:03 AM EDT 10:15 PM EDT
Moon 1:38 PM EDT (8/13) No Moon Set
Length of Visible Light 14h 46m
Length of Day
13h 48m
Waxing Crescent, 41% of the Moon is Illuminated
Aug 13
Waxing Crescent
Aug 14
First Quarter
Aug 20
Full
Aug 28
Last Quarter
Sep 5
New

Hourly Weather History & Observations

Time (EDT) Temp. Dew Point Humidity Pressure Visibility Wind Dir Wind Speed Gust Speed Precip Events Conditions
12:56 AM 68.0 °F 68.0 °F 100% 29.89 in 5.0 mi SSW 4.6 mph - N/A   Clear
1:56 AM 68.0 °F 68.0 °F 100% 29.87 in 3.0 mi Calm Calm - N/A   Clear
2:20 AM 66.2 °F 66.2 °F 100% 29.89 in 2.5 mi SSW 4.6 mph - N/A   Clear
2:56 AM 66.9 °F 66.9 °F 100% 29.86 in 2.5 mi SSW 4.6 mph - N/A   Clear
3:08 AM 68.0 °F 68.0 °F 100% 29.88 in 3.0 mi WSW 5.8 mph - N/A   Clear
3:56 AM 68.0 °F 66.9 °F 96% 29.86 in 5.0 mi SW 5.8 mph - N/A   Clear
4:56 AM 66.9 °F 65.8 °F 96% 29.87 in 7.0 mi WSW 5.8 mph - N/A   Clear
5:56 AM 66.9 °F 65.8 °F 96% 29.87 in 5.0 mi Variable 6.9 mph - N/A   Partly Cloudy
6:56 AM 65.8 °F 64.9 °F 97% 29.88 in 3.0 mi Variable 4.6 mph - N/A   Clear
7:04 AM 66.2 °F 66.2 °F 100% 29.91 in 2.5 mi Variable 6.9 mph - N/A   Scattered Clouds
7:14 AM 66.2 °F 66.2 °F 100% 29.91 in 2.5 mi NW 6.9 mph - N/A   Mostly Cloudy
7:23 AM 66.2 °F 66.2 °F 100% 29.91 in 3.0 mi NNW 6.9 mph - N/A   Mostly Cloudy
7:56 AM 66.9 °F 65.8 °F 96% 29.90 in 3.0 mi Variable 5.8 mph - N/A   Overcast
8:38 AM 66.2 °F 64.4 °F 94% 29.92 in 4.0 mi North 10.4 mph - N/A   Overcast
8:56 AM 68.0 °F 65.8 °F 93% 29.91 in 4.0 mi North 8.1 mph - N/A   Overcast
9:24 AM 68.0 °F 64.4 °F 88% 29.94 in 5.0 mi NW 8.1 mph - N/A   Overcast
9:56 AM 70.0 °F 64.9 °F 84% 29.94 in 6.0 mi NNW 8.1 mph - N/A   Haze
10:22 AM 69.8 °F 64.4 °F 83% 29.97 in 6.0 mi NNW 10.4 mph - N/A   Haze
10:44 AM 71.6 °F 64.4 °F 78% 29.97 in 7.0 mi NNW 10.4 mph - N/A   Scattered Clouds
10:56 AM 70.9 °F 64.9 °F 81% 29.95 in 7.0 mi NW 8.1 mph - N/A   Scattered Clouds
11:56 AM 73.9 °F 63.0 °F 68% 29.96 in 8.0 mi North 11.5 mph - N/A   Partly Cloudy
12:56 PM 73.9 °F 63.9 °F 71% 29.96 in 7.0 mi NNW 12.7 mph - N/A   Scattered Clouds
1:56 PM 74.8 °F 63.0 °F 66% 29.97 in 9.0 mi North 12.7 mph - N/A   Partly Cloudy
2:56 PM 75.9 °F 59.0 °F 56% 29.96 in 8.0 mi NNW 10.4 mph - N/A   Partly Cloudy
3:56 PM 74.8 °F 57.9 °F 55% 29.96 in 8.0 mi NW 12.7 mph - N/A   Clear
4:56 PM 75.9 °F 57.9 °F 54% 29.96 in 8.0 mi North 12.7 mph - N/A   Clear
5:56 PM 72.0 °F 59.0 °F 64% 29.97 in 6.0 mi NNW 12.7 mph - N/A   Haze
6:56 PM 70.9 °F 54.0 °F 55% 29.98 in 8.0 mi NNW 15.0 mph - N/A   Partly Cloudy
7:56 PM 68.0 °F 50.9 °F 54% 30.00 in 7.0 mi North 11.5 mph - N/A   Scattered Clouds
8:56 PM 61.9 °F 50.9 °F 67% 30.01 in 8.0 mi North 10.4 mph - N/A   Clear
9:56 PM 61.0 °F 50.0 °F 67% 30.04 in 8.0 mi North 10.4 mph - N/A   Clear
10:56 PM 57.9 °F 50.9 °F 77% 30.06 in 10.0 mi NNE 4.6 mph - N/A   Clear
11:56 PM 55.9 °F 50.0 °F 80% 30.07 in 9.0 mi WSW 4.6 mph - N/A   Clear